| time (UTC) | temp F | wind direction | speed MPH | gust MPH | rain 1hr in | rain 24hr in | rain mn in | humidity % | barometer mb |
| 20260502163032 | 48 | 253 | 4.0 | 8.0 | 0.00 | 0.15 | 0.01 | 48 | 959.1 |
| 20260502161523 | 46 | 265 | 2.0 | 4.0 | 0.00 | 0.15 | 0.01 | 48 | 959.3 |
| 20260502151516 | 46 | 263 | 3.0 | 7.0 | 0.00 | 0.15 | 0.01 | 56 | 959.4 |
| 20260502123050 | 40 | 251 | 2.0 | 4.0 | 0.00 | 0.15 | 0.01 | 87 | 959.4 |
| 20260502121551 | 39 | 249 | 1.0 | 4.0 | 0.00 | 0.15 | 0.01 | 89 | 959.4 |
| 20260502120145 | 39 | 254 | 1.0 | 3.0 | 0.00 | 0.15 | 0.01 | 92 | 959.4 |
| 20260502114543 | 37 | 254 | 1.0 | 6.0 | 0.00 | 0.15 | 0.01 | 93 | 959.4 |
| 20260502113043 | 37 | 256 | 0.0 | 2.0 | 0.00 | 0.15 | 0.01 | 93 | 959.4 |
| 20260502111540 | 37 | 256 | 1.0 | 3.0 | 0.00 | 0.15 | 0.01 | 93 | 959.3 |
| 20260502110038 | 37 | 256 | 1.0 | 3.0 | 0.00 | 0.15 | 0.01 | 93 | 959.1 |
| 20260502104546 | 37 | 256 | 1.0 | 3.0 | 0.00 | 0.15 | 0.01 | 94 | 959.2 |
| 20260502103031 | 37 | 256 | 2.0 | 4.0 | 0.00 | 0.15 | 0.01 | 93 | 959.1 |
| 20260502101528 | 37 | 247 | 0.0 | 0.0 | 0.00 | 0.15 | 0.01 | 93 | 959.0 |
| 20260502091525 | 37 | 247 | 0.0 | 0.0 | 0.01 | 0.15 | 0.01 | 93 | 958.6 |
| 20260502071527 | 38 | 247 | 0.0 | 2.0 | 0.00 | 0.14 | 0.00 | 93 | 958.0 |
| 20260502070014 | 38 | 247 | 0.0 | 2.0 | 0.00 | 0.14 | 0.00 | 93 | 958.1 |
| 20260502064513 | 39 | 257 | 1.0 | 3.0 | 0.00 | 0.14 | 0.00 | 93 | 957.9 |
| 20260502063008 | 39 | 266 | 1.0 | 3.0 | 0.00 | 0.14 | 0.00 | 93 | 957.8 |
| 20260502061507 | 39 | 260 | 0.0 | 2.0 | 0.00 | 0.14 | 0.00 | 93 | 958.1 |
| 20260502060006 | 40 | 260 | 1.0 | 3.0 | 0.00 | 0.14 | 0.00 | 93 | 957.8 |
| 20260502054511 | 40 | 260 | 1.0 | 2.0 | 0.00 | 0.14 | 0.00 | 93 | 957.9 |
| 20260502053002 | 40 | 260 | 1.0 | 3.0 | 0.00 | 0.14 | 0.00 | 93 | 957.8 |
| 20260502051701 | 40 | 265 | 3.0 | 4.0 | 0.00 | 0.14 | 0.00 | 93 | 957.7 |
| 20260502050101 | 40 | 238 | 1.0 | 3.0 | 0.00 | 0.14 | 0.00 | 93 | 958.0 |
| 20260502044608 | 41 | 236 | 2.0 | 4.0 | 0.01 | 0.14 | 0.00 | 93 | 958.1 |
| 20260502043103 | 41 | 235 | 2.0 | 4.0 | 0.01 | 0.14 | 0.00 | 93 | 958.2 |
| 20260502041554 | 41 | 240 | 2.0 | 4.0 | 0.01 | 0.14 | 0.00 | 93 | 958.0 |
| 20260502040050 | 42 | 240 | 1.0 | 4.0 | 0.02 | 0.14 | 0.00 | 93 | 957.8 |
| 20260502034549 | 42 | 198 | 1.0 | 3.0 | 0.01 | 0.13 | 0.13 | 93 | 957.7 |
| 20260502033149 | 42 | 198 | 1.0 | 3.0 | 0.01 | 0.13 | 0.13 | 93 | 957.7 |
| 20260502031606 | 42 | 147 | 0.0 | 0.0 | 0.01 | 0.13 | 0.13 | 93 | 957.8 |
| 20260502030047 | 42 | 142 | 0.0 | 1.0 | 0.02 | 0.12 | 0.12 | 93 | 957.8 |
| 20260502024553 | 42 | 111 | 0.0 | 2.0 | 0.03 | 0.12 | 0.12 | 93 | 957.8 |
| 20260502023047 | 42 | 111 | 1.0 | 3.0 | 0.04 | 0.12 | 0.12 | 93 | 958.0 |
| 20260502021546 | 42 | 107 | 2.0 | 3.0 | 0.04 | 0.12 | 0.12 | 92 | 958.0 |
| 20260502020050 | 42 | 113 | 2.0 | 4.0 | 0.02 | 0.10 | 0.10 | 92 | 958.0 |
| 20260502014543 | 42 | 102 | 2.0 | 3.0 | 0.02 | 0.09 | 0.09 | 92 | 957.9 |
| 20260502013047 | 42 | 94 | 1.0 | 3.0 | 0.02 | 0.08 | 0.08 | 92 | 957.9 |
| 20260502011548 | 42 | 169 | 0.0 | 2.0 | 0.02 | 0.08 | 0.08 | 92 | 957.9 |
| 20260502010044 | 42 | 169 | 0.0 | 2.0 | 0.03 | 0.08 | 0.08 | 91 | 957.9 |
| 20260502004542 | 42 | 169 | 0.0 | 4.0 | 0.02 | 0.06 | 0.06 | 91 | 957.9 |
| 20260502003040 | 43 | 148 | 0.0 | 0.0 | 0.04 | 0.06 | 0.06 | 91 | 957.8 |
| 20260502001541 | 43 | 161 | 0.0 | 0.0 | 0.05 | 0.06 | 0.06 | 91 | 957.8 |
| 20260502000040 | 43 | 200 | 0.0 | 0.0 | 0.05 | 0.05 | 0.05 | 89 | 957.7 |
| 20260501234550 | 43 | 230 | 0.0 | 0.0 | 0.04 | 0.04 | 0.04 | 88 | 957.7 |
| 20260501233039 | 44 | 230 | 0.0 | 2.0 | 0.02 | 0.02 | 0.02 | 85 | 957.7 |
| 20260501231549 | 45 | 230 | 1.0 | 5.0 | 0.01 | 0.01 | 0.01 | 81 | 957.6 |
| 20260501230038 | 46 | 172 | 3.0 | 9.0 | 0.00 | 0.00 | 0.00 | 77 | 957.4 |
| 20260501224636 | 47 | 171 | 3.0 | 7.0 | 0.00 | 0.00 | 0.00 | 73 | 957.3 |
| 20260501223035 | 48 | 120 | 5.0 | 8.0 | 0.00 | 0.00 | 0.00 | 69 | 957.0 |
| 20260501221535 | 49 | 217 | 0.0 | 1.0 | 0.00 | 0.00 | 0.00 | 63 | 957.1 |
| 20260501220034 | 49 | 219 | 1.0 | 4.0 | 0.00 | 0.00 | 0.00 | 62 | 957.2 |
| 20260501214546 | 50 | 177 | 0.0 | 2.0 | 0.00 | 0.00 | 0.00 | 61 | 957.2 |
| 20260501213034 | 49 | 126 | 1.0 | 4.0 | 0.00 | 0.00 | 0.00 | 62 | 957.2 |
| 20260501211534 | 49 | 176 | 0.0 | 4.0 | 0.00 | 0.00 | 0.00 | 61 | 957.2 |
| 20260501210033 | 49 | 321 | 0.0 | 2.0 | 0.00 | 0.00 | 0.00 | 63 | 957.1 |
| 20260501204532 | 49 | 246 | 0.0 | 2.0 | 0.00 | 0.00 | 0.00 | 65 | 957.2 |
| 20260501203032 | 49 | 246 | 1.0 | 3.0 | 0.00 | 0.00 | 0.00 | 65 | 957.1 |
| 20260501201535 | 48 | 243 | 0.0 | 3.0 | 0.00 | 0.00 | 0.00 | 63 | 957.1 |
| 20260501200030 | 49 | 248 | 1.0 | 3.0 | 0.00 | 0.00 | 0.00 | 61 | 957.2 |
| 20260501194533 | 49 | 244 | 1.0 | 5.0 | 0.00 | 0.00 | 0.00 | 62 | 957.4 |
| 20260501193032 | 49 | 256 | 1.0 | 5.0 | 0.00 | 0.00 | 0.00 | 63 | 957.3 |
| 20260501191528 | 49 | 289 | 1.0 | 4.0 | 0.00 | 0.00 | 0.00 | 69 | 957.4 |
| 20260501190026 | 51 | 240 | 3.0 | 8.0 | 0.00 | 0.00 | 0.00 | 56 | 957.4 |
| 20260501184526 | 51 | 255 | 2.0 | 5.0 | 0.00 | 0.00 | 0.00 | 54 | 957.2 |
| 20260501183027 | 52 | 247 | 3.0 | 7.0 | 0.00 | 0.00 | 0.00 | 53 | 957.4 |
| 20260501181524 | 52 | 234 | 3.0 | 8.0 | 0.00 | 0.00 | 0.00 | 52 | 957.4 |
| 20260501180033 | 50 | 224 | 2.0 | 6.0 | 0.00 | 0.00 | 0.00 | 54 | 957.3 |
| 20260501174522 | 50 | 164 | 1.0 | 3.0 | 0.00 | 0.00 | 0.00 | 55 | 957.5 |
| 20260501173022 | 51 | 154 | 2.0 | 5.0 | 0.00 | 0.00 | 0.00 | 55 | 957.4 |
| 20260501171527 | 50 | 223 | 2.0 | 7.0 | 0.00 | 0.00 | 0.00 | 55 | 957.7 |